Other Surface Observations
Issued by NWS Tucson, AZ

Home | Current Version | Previous Version | Text Only | Print | Product List | Glossary On
Versions: 1 2 3 4 5 6 7 8 9 10 11 12 13 14 15 16 17 18 19 20 21 22 23 24 25 26 27 28 29 30 31 32 33 34 35 36 37 38 39 40 41 42 43 44 45 46 47 48 49 50
320
SXUS55 KTWC 250115
OSOTWC

WEATHER ROUNDUP FOR SOUTHEAST ARIZONA
NATIONAL WEATHER SERVICE TUCSON AZ
615 PM MST TUE MAY 24 2016

AZZ504>506-514-250215-
LOCATION       SKY/WX    TMP DP  RH WIND       PRES   REMARKS
TUCSON         SUNNY     86  17   8 SW15      29.92F
DAVIS-MONTHAN  SUNNY     86  15   7 W12G21    29.91S
CHILDRENS PARK N/A      N/A N/A N/A N/A               PIMA CO DEQ
ALVERNON/22ND  N/A       89 N/A N/A W9                PIMA CO DEQ
CHERRY/GLENN   N/A      N/A N/A N/A N/A               PIMA CO DEQ
TANGERINE      N/A       88 N/A N/A W11               PIMA CO DEQ
CONTL RANCH    N/A       90  21   8 W11               PIMA CO DEQ
GRANT/1ST      N/A       89  17   7 SW0               PIMA CO DEQ
CRAYCROFT/22ND N/A       88  16   7 W12               PIMA CO DEQ
GOLFLINKS/KOLB N/A      N/A N/A N/A N/A               PIMA CO DEQ
AJO/12TH       N/A       89  17   7 SW10              PIMA CO DEQ
SAGUARO EAST   N/A       30 -25   7 SW13              PIMA CO DEQ
FAIRGROUNDS    N/A       86 N/A N/A W18               PIMA CO DEQ
SAGUARO        N/A       88  13   6 SW7G17            *SABINO CYN
SAN CARLOS     N/A       85  17   8 SW12G19           *SAN CARLOS
GREEN VALLEY   N/A       86  15   7 SW13              PIMA CO DEQ
HORSE CAMP CYN N/A       82  18   9 SW14G31           *ARAVAIPA CYN
RINCON MTNS    NOT AVBL
$$

AZZ509>511-250215-
LOCATION       SKY/WX    TMP DP  RH WIND       PRES   REMARKS
SAFFORD        SUNNY     87  15   7 W20G28    29.87S
STRAY HORSE    N/A       63  15  15 W10G25            *
TRAIL CABIN    N/A       73  15  11 W7G18             *N OF GRANVILLE
BLACK HILLS    NOT AVBL
DRY LAKE       N/A       65  16  15 W6G16             *NATANES MTNS
NOON CREEK     NOT AVBL
COLUMBINE      N/A       55  15  20 W10G21            *PINALENO MTNS
GUTHRIE        N/A       74  16  11 SW16G28           *SW OF GUTHRIE
$$

AZZ502-503-513-250215-
LOCATION       SKY/WX    TMP DP  RH WIND       PRES   REMARKS
NOGALES        SUNNY     81  16   9 W14G21    30.00S
SELLS          N/A       85  30  14 N10G19            *
SASABE         N/A       83  18   9 SW12G22           *ALTAR VLY
HOPKINS        N/A       70  15  12 W9G23             *SANTA RITA MTNS
CARR CYN       N/A       74  22  14 W5G12             *W OF HEREFORD
$$

AZZ507-508-512-250215-
LOCATION       SKY/WX    TMP DP  RH WIND       PRES   REMARKS
SIERRA VISTA   SUNNY     78  17  10 S16G23    30.04R
DOUGLAS        SUNNY     82  23  11 W17       29.99R
EMPIRE MTNS    NOT AVBL
MULESHOE RANCH N/A       81  11   7 NW10G23           *PRESERVE
HEADQUARTERS   NOT AVBL
$$

.............................NOTES.............................
THIS IS AN AUTOMATED COLLECTIVE WITH MINIMAL QUALITY CONTROL.
PIMA CO DEQ SITES HAVE NONSTANDARD WIND SENSOR HEIGHTS.
PIMA CO DEQ SITES DO NOT REPORT WIND GUSTS.
* INDICATES WIND SENSORS LOCATED AT 20 FEET INSTEAD OF 33 FEET.
..............................KEY..............................
SKY/WX - SKY CONDITION/WEATHER
TMP    - TEMPERATURE IN FAHRENHEIT
DP     - DEWPOINT IN FAHRENHEIT
RH     - RELATIVE HUMIDITY IN PERCENT
WIND   - DIRECTION AND SPEED IN MILES PER HOUR (MPH)
VRB    - VARIABLE WIND DIRECTION
PRES   - MEAN SEA LEVEL PRESSURE IN INCHES OF MERCURY
         F - FALLING PRESSURE   R - RISING PRESSURE
         S - STEADY PRESSURE
VSB    - VISIBILITY IN MILES
HX     - HEAT INDEX IN FAHRENHEIT
WCI    - WIND CHILL INDEX IN FAHRENHEIT
N/A    - NOT AVAILABLE
AFB    - AIR FORCE BASE
         DAVIS-MONTHAN IS DAVIS-MONTHAN AIR FORCE BASE
CYN    - CANYON
MTNS   - MOUNTAINS
NCA    - NATIONAL CONSERVATION AREA
NR     - NEAR
VLY    - VALLEY
CONTL  - CONTINENTAL
PIMA CO DEQ - PIMA COUNTY DEPT OF ENVIRONMENTAL QUALITY



USA.gov is the U.S. government's official web portal to all federal, state and local government web resources and services.